Weather History for KDMO - July, 2013

Change the Weather History Date:

Thursday, July 18, 2013

  Actual Average Record
Temperature  
Mean Temperature 85 °F 79 °F  
Max Temperature 97 °F 89 °F - ()
Min Temperature 73 °F 69 °F - ()
Degree Days  
Heating Degree Days 0 0  
Month to date heating degree days 0 0  
Since 1 June heating degree days 9 6  
Since 1 July heating degree days 0 0  
Cooling Degree Days 20 14  
Month to date cooling degree days 236 249  
Year to date cooling degree days 691 692  
Since 1 June cooling degree days 543 553  
Growing Degree Days 35 (Base 50)    
Moisture  
Dew Point 69 °F    
Average Humidity 63    
Maximum Humidity 87    
Minimum Humidity 38    
Precipitation  
Precipitation 0.00 in 0.16 in - ()
Month to date precipitation 0.43 2.67  
Year to date precipitation 25.84 22.91  
Sea Level Pressure  
Sea Level Pressure 30.11 in    
Wind  
Wind Speed 5 mph (SSW)    
Max Wind Speed 10 mph    
Max Gust Speed 16 mph    
Visibility 10 miles    
Events      
T = Trace of Precipitation, MM = Missing Value Source: NWS Daily Summary

Daily Weather History Graph

Daily Weather History Graph

Search for Another Location

Airport or City:

Trip Planner

Search our weather history database for the weather conditions in past years. The results will help you decide how hot, cold, wet, or windy it might be!

Date:

Astronomy

Jul. 18, 2013 Rise Set
Actual Time 6:02 AM CDT 8:34 PM CDT
Civil Twilight 5:31 AM CDT 9:05 PM CDT
Nautical Twilight 4:53 AM CDT 9:43 PM CDT
Astronomical Twilight 4:11 AM CDT 10:26 PM CDT
Moon 4:32 PM CDT (7/18) 1:52 AM CDT (7/18)
Length of Visible Light 15h 33m
Length of Day
14h 32m
Waxing Gibbous, 77% of the Moon is Illuminated
Jul 18
Waxing Gibbous
Jul 22
Full
Jul 29
Last Quarter
Aug 6
New
Aug 14
First Quarter

Hourly Weather History & Observations

Time (CDT) Temp. Heat Index Dew Point Humidity Pressure Visibility Wind Dir Wind Speed Gust Speed Precip Events Conditions
12:53 AM 78.1 °F - 71.1 °F 79% 30.21 in 10.0 mi Calm Calm - N/A   Clear
1:53 AM 75.9 °F - 71.1 °F 85% 30.20 in 10.0 mi SSE 3.5 mph - N/A   Clear
2:53 AM 75.9 °F - 71.1 °F 85% 30.19 in 10.0 mi South 3.5 mph - N/A   Clear
3:53 AM 75.9 °F - 70.0 °F 82% 30.18 in 10.0 mi SSE 3.5 mph - N/A   Clear
4:53 AM 73.0 °F - 69.1 °F 87% 30.17 in 10.0 mi South 4.6 mph - N/A   Clear
5:53 AM 73.9 °F - 69.1 °F 85% 30.17 in 10.0 mi South 3.5 mph - N/A   Clear
6:53 AM 75.9 °F - 70.0 °F 82% 30.18 in 10.0 mi SSW 4.6 mph - N/A   Clear
7:53 AM 80.1 °F 83.2 °F 70.0 °F 71% 30.17 in 10.0 mi SSW 6.9 mph - N/A   Clear
8:53 AM 84.9 °F 90.1 °F 71.1 °F 63% 30.18 in 10.0 mi WSW 4.6 mph - N/A   Clear
9:53 AM 87.1 °F 92.8 °F 71.1 °F 59% 30.17 in 10.0 mi SW 5.8 mph - N/A   Clear
10:53 AM 90.0 °F 96.4 °F 71.1 °F 54% 30.16 in 10.0 mi Variable 3.5 mph - N/A   Clear
11:53 AM 93.0 °F 97.9 °F 69.1 °F 45% 30.14 in 10.0 mi Variable 3.5 mph - N/A   Clear
12:53 PM 93.9 °F 99.1 °F 69.1 °F 44% 30.13 in 10.0 mi Variable 3.5 mph - N/A   Mostly Cloudy
1:53 PM 95.0 °F 99.5 °F 68.0 °F 41% 30.10 in 10.0 mi SSW 5.8 mph - N/A   Scattered Clouds
2:53 PM 96.1 °F 99.9 °F 66.9 °F 38% 30.07 in 10.0 mi West 5.8 mph - N/A   Partly Cloudy
3:53 PM 93.9 °F 97.0 °F 66.0 °F 40% 30.05 in 10.0 mi Variable 6.9 mph - N/A   Partly Cloudy
4:53 PM 97.0 °F 101.0 °F 66.9 °F 37% 30.03 in 10.0 mi West 8.1 mph - N/A   Mostly Cloudy
5:53 PM 95.0 °F 97.9 °F 66.0 °F 38% 30.02 in 10.0 mi Variable 4.6 mph - N/A   Mostly Cloudy
6:53 PM 93.0 °F 97.9 °F 69.1 °F 45% 30.01 in 10.0 mi WNW 3.5 mph - N/A   Clear
7:53 PM 90.0 °F 94.5 °F 69.1 °F 50% 30.01 in 10.0 mi SSE 4.6 mph - N/A   Clear
8:53 PM 86.0 °F 90.1 °F 69.1 °F 57% 30.01 in 10.0 mi SE 3.5 mph - N/A   Clear
9:53 PM 82.9 °F 87.0 °F 70.0 °F 65% 30.02 in 10.0 mi Calm Calm - N/A   Clear
10:53 PM 80.1 °F 83.6 °F 71.1 °F 74% 30.01 in 10.0 mi South 5.8 mph - N/A   Clear
11:53 PM 78.1 °F - 70.0 °F 76% 30.00 in 10.0 mi South 5.8 mph - N/A   Clear